Miscellaneous Local Product
Issued by NWS Hastings, NE

Home | Current Version | Previous Version | Graphics & Text | Print | Product List | Glossary On
Versions: 1 2 3 4 5 6 7 8 9 10 11 12 13 14 15 16 17 18 19 20 21 22 23 24 25 26 27 28 29 30 31 32 33 34 35 36 37 38 39 40 41 42 43 44 45 46 47 48 49 50
000
AXUS43 KGID 271202
MISGRI

GID CWA HOURLY WEATHER ROUNDUP
NATIONAL WEATHER SERVICE HASTINGS NE
700 AM CDT WED AUG 27 2014

NOTE: "FAIR" INDICATES FEW OR NO CLOUDS BELOW 12,000 FEET WITH NO
SIGNIFICANT WEATHER AND/OR OBSTRUCTIONS TO VISIBILITY.

...SOUTH CENTRAL NEBRASKA...

CITY           SKY/WX    TMP DP  RH WIND       PRES   REMARKS
GRAND ISLAND   LGT RAIN  69  66  90 E5        30.10F FOG
HASTINGS       LGT RAIN  68  64  87 N6        30.07F
KEARNEY        CLOUDY    66  64  94 E6        30.09F
ORD            CLOUDY    67  66  97 SE5       30.11R
YORK           LGT RAIN  68 N/A N/A CALM      30.12S
AURORA         RAIN      68  68 100 CALM      30.11F
LEXINGTON      CLOUDY    68  67  96 S6        30.08R
HOLDREGE       CLOUDY    67  65  94 CALM      30.09F
HEBRON         CLOUDY    69  66  90 NW5       30.09R

...NEBRASKA PANHANDLE...

CITY           SKY/WX    TMP DP  RH WIND       PRES   REMARKS
CHADRON        CLOUDY    62  59  90 NE5       30.12S
ALLIANCE       MOCLDY    60  59  96 NE8       30.13R FOG
SCOTTSBLUFF    MOCLDY    61  60  97 N3        30.11F
SIDNEY         PTCLDY    60  57  89 SE7       30.14R

...WESTERN AND NORTH CENTRAL NEBRASKA...

CITY           SKY/WX    TMP DP  RH WIND       PRES   REMARKS
VALENTINE      CLOUDY    68  67  96 E5        30.11F
AINSWORTH      DRIZZLE   66  65  96 CALM      30.12R
ONEILL         TSTM      69  67  94 S3        30.13R
BROKEN BOW     CLOUDY    69  67  93 E8        30.08F FOG
IMPERIAL       PTCLDY    62  61  96 SE9       30.11S
NORTH PLATTE   MOCLDY    67  63  87 E9        30.09R
MCCOOK         CLOUDY    67  65  93 SE7       30.12R

...EASTERN NEBRASKA...

CITY           SKY/WX    TMP DP  RH WIND       PRES   REMARKS
NORFOLK        CLOUDY    66  63  90 NE9       30.11S
SO SIOUX CITY    N/A     65  60  84 S3        30.13R
TEKAMAH        CLOUDY    66  64  93 N5        30.11F
COLUMBUS       CLOUDY    66  63  88 S5        30.13R
ALBION         TSTM      66  64  93 CALM      30.13R
OMAHA EPPLEY   MOCLDY    69  64  84 SE7       30.10R
OFFUTT AFB     MOCLDY    67  67 100 NE6       30.08F
MILLARD        MOCLDY    69  65  89 CALM      30.09S THUNDER
LINCOLN        CLOUDY    70  67  90 CALM      30.09S
NEBRASKA CITY  CLOUDY    68  68 100 E5        30.10R FOG
BEATRICE       CLOUDY    70  69  97 E9        30.09R
FALLS CITY     CLOUDY    70  66  87 E9        30.07F

...NORTHERN KANSAS...

CITY           SKY/WX    TMP DP  RH WIND       PRES   REMARKS
GOODLAND       CLOUDY    64  63  96 SE8       30.14F
HILL CITY      LGT RAIN  69  66  90 SW3       30.12R
NORTON         MOSUNNY   68  64  88 CALM      30.11R
PHILLIPSBURG   CLEAR     70  70 100 CALM      30.10R
SMITH CENTER   CLEAR     68  66  94 E3        30.10S
BELOIT         CLEAR     72  70  94 CALM      30.07R
HAYS           CLOUDY    70  64  83 W8        30.13R
RUSSELL        CLOUDY    72  67  84 SW8       30.10R
CONCORDIA      CLOUDY    70  70 100 E5        30.07R
SALINA         MOCLDY    76  68  76 SW6       30.08R
TOPEKA         CLOUDY    76  72  87 E6        30.07R



USA.gov is the U.S. government's official web portal to all federal, state and local government web resources and services.